When you browse on this site, cookies collect data to enhance your experience and personalize the content and advertising you see.
Visit our Privacy Policy to learn more. By continuing to use the site, you agree to this use of cookies and data.
  • en Suisse
  • Liste des pays
  • À 7 jours
  • Température de l'eau
  • Carte satellitaire
  • Carte météo
  • Widgets météo
  • user-avatar
    Se connecter

    Météo par heure à Tomakivs'ke

    Ce jour, 17 Juillet, Mercredi

    Heure Température Précipitation Vent Pression Humidité
    00:00 +18°C° 0 mm 2 m/s 746 mmHg 81%
    01:00 +17°C° 0 mm 2 m/s 746 mmHg 83%
    02:00 +17°C° 0 mm 2 m/s 746 mmHg 80%
    03:00 +17°C° 0 mm 2 m/s 746 mmHg 80%
    04:00 +17°C° 0 mm 2 m/s 747 mmHg 80%
    05:00 +17°C° 0 mm 2 m/s 747 mmHg 80%
    06:00 +19°C° 0 mm 2 m/s 747 mmHg 73%
    07:00 +20°C° 0 mm 3 m/s 747 mmHg 65%
    08:00 +22°C° 0 mm 3 m/s 747 mmHg 57%
    09:00 +24°C° 0 mm 3 m/s 747 mmHg 52%
    10:00 +25°C° 0 mm 3 m/s 747 mmHg 47%
    11:00 +27°C° 0 mm 3 m/s 747 mmHg 41%
    12:00 +27°C° 0 mm 3 m/s 747 mmHg 40%
    13:00 +28°C° 0 mm 3 m/s 746 mmHg 38%
    14:00 +28°C° 0 mm 3 m/s 746 mmHg 36%
    15:00 +28°C° 0 mm 3 m/s 746 mmHg 39%
    16:00 +27°C° 0 mm 3 m/s 746 mmHg 41%
    17:00 +27°C° 0 mm 3 m/s 746 mmHg 43%
    18:00 +25°C° 0 mm 3 m/s 746 mmHg 49%
    19:00 +23°C° 0 mm 2 m/s 746 mmHg 56%
    20:00 +21°C° 0 mm 2 m/s 746 mmHg 62%
    21:00 +21°C° 0 mm 1 m/s 747 mmHg 64%
    22:00 +20°C° 0 mm 1 m/s 747 mmHg 65%
    23:00 +20°C° 0 mm 1 m/s 747 mmHg 67%

    Demain, 18 Juillet, Jeudi

    Heure Température Précipitation Vent Pression Humidité
    00:00 +19°C° 0 mm 1 m/s 747 mmHg 69%
    01:00 +19°C° 0 mm 1 m/s 747 mmHg 71%
    02:00 +16°C° 0 mm 0 m/s 747 mmHg 73%
    03:00 +19°C° 0 mm 1 m/s 747 mmHg 74%
    04:00 +19°C° 0 mm 1 m/s 747 mmHg 75%
    05:00 +19°C° 0 mm 1 m/s 747 mmHg 75%
    06:00 +20°C° 0 mm 1 m/s 747 mmHg 69%
    07:00 +21°C° 0 mm 2 m/s 748 mmHg 63%
    08:00 +24°C° 0 mm 2 m/s 748 mmHg 57%
    09:00 +25°C° 0 mm 3 m/s 748 mmHg 52%
    10:00 +26°C° 0 mm 3 m/s 748 mmHg 46%
    11:00 +27°C° 0 mm 3 m/s 748 mmHg 40%
    12:00 +28°C° 0 mm 4 m/s 748 mmHg 38%
    13:00 +28°C° 0 mm 4 m/s 748 mmHg 36%
    14:00 +29°C° 0 mm 4 m/s 748 mmHg 34%
    15:00 +28°C° 0 mm 4 m/s 748 mmHg 35%
    16:00 +28°C° 0 mm 4 m/s 748 mmHg 36%
    17:00 +27°C° 0 mm 5 m/s 748 mmHg 37%
    18:00 +25°C° 0 mm 4 m/s 749 mmHg 45%
    19:00 +22°C° 0 mm 3 m/s 749 mmHg 52%
    20:00 +21°C° 0 mm 3 m/s 749 mmHg 59%
    21:00 +20°C° 0 mm 2 m/s 750 mmHg 62%
    22:00 +19°C° 0 mm 2 m/s 750 mmHg 64%
    23:00 +18°C° 0 mm 2 m/s 751 mmHg 67%

    Après-demain, 19 Juillet, Vendredi

    Heure Température Précipitation Vent Pression Humidité
    00:00 +18°C° 0 mm 2 m/s 751 mmHg 68%
    01:00 +17°C° 0 mm 2 m/s 751 mmHg 70%
    02:00 +18°C° 0 mm 1 m/s 751 mmHg 71%
    03:00 +17°C° 0 mm 2 m/s 751 mmHg 73%
    04:00 +17°C° 0 mm 2 m/s 751 mmHg 75%
    05:00 +17°C° 0 mm 2 m/s 752 mmHg 78%
    06:00 +19°C° 0 mm 2 m/s 752 mmHg 71%
    07:00 +20°C° 0 mm 2 m/s 752 mmHg 65%
    08:00 +22°C° 0 mm 3 m/s 753 mmHg 59%
    09:00 +24°C° 0 mm 3 m/s 753 mmHg 53%
    10:00 +26°C° 0 mm 3 m/s 753 mmHg 48%
    11:00 +27°C° 0 mm 4 m/s 753 mmHg 42%
    12:00 +27°C° 0 mm 4 m/s 753 mmHg 40%
    13:00 +28°C° 0 mm 4 m/s 752 mmHg 38%
    14:00 +28°C° 0 mm 3 m/s 752 mmHg 36%
    15:00 +28°C° 0 mm 3 m/s 752 mmHg 36%
    16:00 +28°C° 0 mm 3 m/s 752 mmHg 36%
    17:00 +28°C° 0 mm 3 m/s 752 mmHg 36%
    18:00 +26°C° 0 mm 3 m/s 752 mmHg 42%
    19:00 +24°C° 0 mm 2 m/s 753 mmHg 48%
    20:00 +21°C° 0 mm 2 m/s 753 mmHg 54%
    21:00 +21°C° 0 mm 1 m/s 753 mmHg 54%
    22:00 +21°C° 0 mm 1 m/s 754 mmHg 54%
    23:00 +18°C° 0 mm 0 m/s 754 mmHg 55%

    20 Juillet, Samedi

    Heure Température Précipitation Vent Pression Humidité
    00:00 +18°C° 0 mm 0 m/s 754 mmHg 56%
    01:00 +18°C° 0 mm 0 m/s 754 mmHg 57%
    02:00 +17°C° 0 mm 0 m/s 754 mmHg 57%
    03:00 +17°C° 0 mm 0 m/s 754 mmHg 59%
    04:00 +17°C° 0 mm 0 m/s 754 mmHg 60%
    05:00 +17°C° 0 mm 0 m/s 754 mmHg 62%
    06:00 +19°C° 0 mm 0 m/s 755 mmHg 56%
    07:00 +24°C° 0 mm 1 m/s 755 mmHg 51%
    08:00 +26°C° 0 mm 1 m/s 755 mmHg 45%
    09:00 +27°C° 0 mm 1 m/s 755 mmHg 42%
    10:00 +28°C° 0 mm 1 m/s 755 mmHg 39%
    11:00 +29°C° 0 mm 1 m/s 755 mmHg 36%
    12:00 +30°C° 0 mm 1 m/s 755 mmHg 34%
    13:00 +30°C° 0 mm 1 m/s 755 mmHg 33%
    14:00 +31°C° 0 mm 1 m/s 754 mmHg 32%
    15:00 +31°C° 0 mm 1 m/s 754 mmHg 34%
    16:00 +30°C° 0 mm 1 m/s 754 mmHg 35%
    17:00 +30°C° 0 mm 1 m/s 754 mmHg 37%
    18:00 +28°C° 0 mm 1 m/s 754 mmHg 40%
    19:00 +27°C° 0 mm 1 m/s 754 mmHg 44%
    20:00 +25°C° 0 mm 1 m/s 754 mmHg 47%
    21:00 +24°C° 0 mm 1 m/s 754 mmHg 48%
    22:00 +24°C° 0 mm 1 m/s 755 mmHg 48%
    23:00 +23°C° 0 mm 1 m/s 755 mmHg 49%

    21 Juillet, Dimanche

    Heure Température Précipitation Vent Pression Humidité
    00:00 +23°C° 0 mm 1 m/s 755 mmHg 50%
    01:00 +22°C° 0 mm 1 m/s 755 mmHg 51%
    02:00 +21°C° 0 mm 2 m/s 754 mmHg 53%
    03:00 +22°C° 0 mm 1 m/s 754 mmHg 55%
    04:00 +22°C° 0 mm 1 m/s 754 mmHg 57%
    05:00 +20°C° 0 mm 0 m/s 754 mmHg 58%
    06:00 +22°C° 0 mm 0 m/s 754 mmHg 53%
    07:00 +26°C° 0 mm 1 m/s 754 mmHg 47%
    08:00 +28°C° 0 mm 1 m/s 755 mmHg 41%
    09:00 +29°C° 0 mm 1 m/s 754 mmHg 38%
    10:00 +30°C° 0 mm 1 m/s 754 mmHg 35%
    11:00 +31°C° 0 mm 1 m/s 754 mmHg 32%
    12:00 +32°C° 0 mm 1 m/s 754 mmHg 32%
    13:00 +32°C° 0 mm 1 m/s 754 mmHg 32%
    14:00 +32°C° 0 mm 1 m/s 753 mmHg 32%
    15:00 +31°C° 0 mm 1 m/s 753 mmHg 33%
    16:00 +31°C° 0 mm 1 m/s 753 mmHg 34%
    17:00 +31°C° 0 mm 1 m/s 753 mmHg 35%
    18:00 +29°C° 0 mm 1 m/s 753 mmHg 39%
    19:00 +28°C° 0 mm 2 m/s 753 mmHg 42%
    20:00 +27°C° 0 mm 2 m/s 754 mmHg 46%
    21:00 +26°C° 0 mm 2 m/s 754 mmHg 49%
    22:00 +25°C° 0 mm 1 m/s 754 mmHg 53%
    23:00 +25°C° 0 mm 1 m/s 754 mmHg 56%

    22 Juillet, Lundi

    Heure Température Précipitation Vent Pression Humidité
    00:00 +24°C° 0 mm 1 m/s 754 mmHg 59%
    01:00 +23°C° 0 mm 1 m/s 753 mmHg 62%
    02:00 +21°C° 0 mm 0 m/s 753 mmHg 65%
    03:00 +23°C° 0 mm 1 m/s 753 mmHg 65%
    04:00 +23°C° 0 mm 1 m/s 753 mmHg 66%
    05:00 +23°C° 0 mm 1 m/s 753 mmHg 67%
    06:00 +25°C° 0 mm 1 m/s 753 mmHg 61%
    07:00 +27°C° 0 mm 1 m/s 753 mmHg 55%
    08:00 +28°C° 0 mm 1 m/s 753 mmHg 48%
    09:00 +30°C° 0 mm 2 m/s 753 mmHg 44%
    10:00 +31°C° 0 mm 2 m/s 753 mmHg 40%
    11:00 +33°C° 0 mm 3 m/s 753 mmHg 36%
    12:00 +32°C° 0 mm 2 m/s 753 mmHg 36%
    13:00 +32°C° 0 mm 2 m/s 752 mmHg 36%
    14:00 +32°C° 0 mm 2 m/s 752 mmHg 36%
    15:00 +32°C° 0 mm 2 m/s 752 mmHg 37%
    16:00 +32°C° 0 mm 2 m/s 752 mmHg 38%
    17:00 +31°C° 0 mm 2 m/s 751 mmHg 39%
    18:00 +29°C° 0.1 mm 2 m/s 751 mmHg 47%
    19:00 +27°C° 0.1 mm 3 m/s 751 mmHg 55%
    20:00 +25°C° 0.1 mm 3 m/s 751 mmHg 63%
    21:00 +25°C° 0.1 mm 3 m/s 751 mmHg 63%
    22:00 +25°C° 0.1 mm 3 m/s 751 mmHg 64%
    23:00 +24°C° 0.1 mm 3 m/s 751 mmHg 65%
    Voir plus